FENGYUN 2H

Last updated on Fri Oct 11 2024 00:02:17 GMT+0000 (Coordinated Universal Time)

1 43491U 18050A 24284.56211451 -.00000123 00000+0 00000+0 0 9995 2 43491 1.4371 86.1582 0001556 117.8512 97.2986 1.00268506 23274
UTC large
Height (km)
Speed (km/s)
/
Latitude / Longitude
Inclination (degrees)
Orbital Period (minutes)
Azimuth
Elevation
Range (km)
Doppler Factor

Next 0 passes for location: London (51.5072 / 0.1276)

Sorry there are no passes over London.